Time,TemperatureF,DewpointF,PressureIn,WindDirection,WindDirectionDegrees,WindSpeedMPH,WindSpeedGustMPH,Humidity,HourlyPrecipIn,Conditions,Clouds,dailyrainin,SoftwareType,DateUTC
2013-01-23 00:02:00,43.0,-14.0,30.04,NW,314,10.0,25.0,8,0.00,,,0.00,,2013-01-23 07:02:00,
2013-01-23 00:12:00,43.0,-14.0,30.04,NW,314,10.0,25.0,8,0.00,,,0.00,,2013-01-23 07:12:00,
2013-01-23 00:22:00,43.0,-14.0,30.02,West,269,14.0,31.0,8,0.00,,,0.00,,2013-01-23 07:22:00,
2013-01-23 00:33:00,43.0,-12.0,30.02,West,266,11.0,28.0,9,0.00,,,0.00,,2013-01-23 07:33:00,
2013-01-23 00:42:00,43.0,-12.0,30.02,West,266,11.0,28.0,9,0.00,,,0.00,,2013-01-23 07:42:00,
2013-01-23 00:53:00,43.0,-14.0,30.01,WSW,253,15.0,26.0,8,0.00,,,0.00,,2013-01-23 07:53:00,
2013-01-23 01:02:00,43.0,-14.0,30.01,WSW,244,19.0,35.0,8,0.00,,,0.00,,2013-01-23 08:02:00,
2013-01-23 01:12:00,43.0,-14.0,30.01,WSW,244,19.0,35.0,8,0.00,,,0.00,,2013-01-23 08:12:00,
2013-01-23 01:22:00,43.0,-12.0,30.00,WSW,256,16.0,31.0,9,0.00,,,0.00,,2013-01-23 08:22:00,
2013-01-23 01:33:00,42.0,-13.0,30.00,West,259,17.0,29.0,9,0.00,,,0.00,,2013-01-23 08:33:00,
2013-01-23 01:42:00,42.0,-13.0,30.00,West,259,17.0,29.0,9,0.00,,,0.00,,2013-01-23 08:42:00,
2013-01-23 01:53:00,42.0,-15.0,30.00,WSW,254,13.0,26.0,8,0.00,,,0.00,,2013-01-23 08:53:00,
2013-01-23 02:02:00,43.0,-14.0,30.00,West,264,12.0,25.0,8,0.00,,,0.00,,2013-01-23 09:02:00,
2013-01-23 02:12:00,43.0,-14.0,30.00,West,264,12.0,25.0,8,0.00,,,0.00,,2013-01-23 09:12:00,
2013-01-23 02:22:00,43.0,-17.0,29.99,WSW,254,5.0,20.0,7,0.00,,,0.00,,2013-01-23 09:22:00,
2013-01-23 02:32:00,43.0,-17.0,29.99,West,269,13.0,17.0,7,0.00,,,0.00,,2013-01-23 09:32:00,
2013-01-23 02:43:00,43.0,-17.0,29.99,West,269,13.0,17.0,7,0.00,,,0.00,,2013-01-23 09:43:00,
2013-01-23 02:53:00,44.0,-16.0,29.99,WSW,243,17.0,31.0,7,0.00,,,0.00,,2013-01-23 09:53:00,
2013-01-23 03:02:00,43.0,-17.0,29.99,West,272,17.0,28.0,7,0.00,,,0.00,,2013-01-23 10:02:00,
2013-01-23 03:12:00,43.0,-17.0,29.99,West,272,17.0,28.0,7,0.00,,,0.00,,2013-01-23 10:12:00,
2013-01-23 03:23:00,44.0,-19.0,30.00,West,262,16.0,28.0,6,0.00,,,0.00,,2013-01-23 10:23:00,
2013-01-23 03:32:00,44.0,-19.0,30.00,WSW,254,16.0,26.0,6,0.00,,,0.00,,2013-01-23 10:32:00,
2013-01-23 03:42:00,44.0,-19.0,30.00,WSW,254,16.0,26.0,6,0.00,,,0.00,,2013-01-23 10:42:00,
2013-01-23 03:53:00,44.0,-19.0,30.02,WSW,251,16.0,26.0,6,0.00,,,0.00,,2013-01-23 10:53:00,
2013-01-23 04:02:00,44.0,-19.0,30.02,West,261,16.0,28.0,6,0.00,,,0.00,,2013-01-23 11:02:00,
2013-01-23 04:12:00,44.0,-19.0,30.02,West,261,16.0,28.0,6,0.00,,,0.00,,2013-01-23 11:12:00,
2013-01-23 04:22:00,43.0,-17.0,30.03,West,271,12.0,20.0,7,0.00,,,0.00,,2013-01-23 11:22:00,
2013-01-23 04:33:00,43.0,-20.0,30.03,West,264,13.0,24.0,6,0.00,,,0.00,,2013-01-23 11:33:00,
2013-01-23 04:43:00,43.0,-20.0,30.03,West,264,13.0,24.0,6,0.00,,,0.00,,2013-01-23 11:43:00,
2013-01-23 04:53:00,43.0,-17.0,30.05,WSW,251,16.0,25.0,7,0.00,,,0.00,,2013-01-23 11:53:00,
2013-01-23 05:03:00,43.0,-17.0,30.05,WSW,246,14.0,26.0,7,0.00,,,0.00,,2013-01-23 12:03:00,
2013-01-23 05:12:00,43.0,-17.0,30.05,WSW,246,14.0,26.0,7,0.00,,,0.00,,2013-01-23 12:12:00,
2013-01-23 05:22:00,44.0,-16.0,30.04,WSW,251,16.0,28.0,7,0.00,,,0.00,,2013-01-23 12:22:00,
2013-01-23 05:33:00,43.0,-17.0,30.04,WSW,256,17.0,28.0,7,0.00,,,0.00,,2013-01-23 12:33:00,
2013-01-23 05:43:00,43.0,-17.0,30.04,WSW,256,17.0,28.0,7,0.00,,,0.00,,2013-01-23 12:43:00,
2013-01-23 05:53:00,44.0,-16.0,30.03,WSW,243,18.0,26.0,7,0.00,,,0.00,,2013-01-23 12:53:00,
2013-01-23 06:03:00,44.0,-16.0,30.03,WSW,241,17.0,26.0,7,0.00,,,0.00,,2013-01-23 13:03:00,
2013-01-23 06:12:00,44.0,-16.0,30.03,WSW,241,17.0,26.0,7,0.00,,,0.00,,2013-01-23 13:12:00,
2013-01-23 06:23:00,44.0,-16.0,30.04,West,261,9.0,25.0,7,0.00,,,0.00,,2013-01-23 13:23:00,
2013-01-23 06:33:00,45.0,-15.0,30.04,WSW,254,11.0,20.0,7,0.00,,,0.00,,2013-01-23 13:33:00,
2013-01-23 06:42:00,45.0,-15.0,30.04,WSW,254,11.0,20.0,7,0.00,,,0.00,,2013-01-23 13:42:00,
2013-01-23 06:53:00,44.0,-16.0,30.03,West,259,6.0,12.0,7,0.00,,,0.00,,2013-01-23 13:53:00,
2013-01-23 07:02:00,46.0,-18.0,30.03,WSW,254,6.0,17.0,6,0.00,,,0.00,,2013-01-23 14:02:00,
2013-01-23 07:12:00,46.0,-18.0,30.03,WSW,254,6.0,17.0,6,0.00,,,0.00,,2013-01-23 14:12:00,
2013-01-23 07:23:00,46.0,-15.0,30.03,WSW,244,11.0,20.0,7,0.00,,,0.00,,2013-01-23 14:23:00,
2013-01-23 07:33:00,46.0,-15.0,30.03,West,265,14.0,21.0,7,0.00,,,0.00,,2013-01-23 14:33:00,
2013-01-23 07:42:00,46.0,-15.0,30.03,West,265,14.0,21.0,7,0.00,,,0.00,,2013-01-23 14:42:00,
2013-01-23 07:53:00,46.0,-15.0,30.02,WSW,256,17.0,29.0,7,0.00,,,0.00,,2013-01-23 14:53:00,
2013-01-23 08:03:00,46.0,-15.0,30.02,WSW,256,21.0,30.0,7,0.00,,,0.00,,2013-01-23 15:03:00,
2013-01-23 08:12:00,46.0,-15.0,30.02,WSW,256,21.0,30.0,7,0.00,,,0.00,,2013-01-23 15:12:00,
2013-01-23 08:23:00,46.0,-12.0,30.02,WSW,237,13.0,24.0,8,0.00,,,0.00,,2013-01-23 15:23:00,
2013-01-23 08:33:00,46.0,-12.0,30.02,West,264,10.0,22.0,8,0.00,,,0.00,,2013-01-23 15:33:00,
2013-01-23 08:43:00,46.0,-12.0,30.02,West,264,10.0,22.0,8,0.00,,,0.00,,2013-01-23 15:43:00,
2013-01-23 08:53:00,46.0,-12.0,30.05,WNW,292,12.0,20.0,8,0.00,,,0.00,,2013-01-23 15:53:00,
2013-01-23 09:03:00,46.0,-12.0,30.05,West,272,9.0,20.0,8,0.00,,,0.00,,2013-01-23 16:03:00,
2013-01-23 09:12:00,46.0,-12.0,30.05,West,272,9.0,20.0,8,0.00,,,0.00,,2013-01-23 16:12:00,
2013-01-23 09:23:00,46.0,-12.0,30.06,WSW,249,9.0,17.0,8,0.00,,,0.00,,2013-01-23 16:23:00,
2013-01-23 09:32:00,46.0,-12.0,30.06,West,272,13.0,24.0,8,0.00,,,0.00,,2013-01-23 16:32:00,
2013-01-23 09:42:00,46.0,-12.0,30.06,West,272,13.0,24.0,8,0.00,,,0.00,,2013-01-23 16:42:00,
2013-01-23 09:53:00,46.0,-12.0,30.06,WSW,247,13.0,26.0,8,0.00,,,0.00,,2013-01-23 16:53:00,
2013-01-23 10:03:00,46.0,-12.0,30.06,West,271,7.0,18.0,8,0.00,,,0.00,,2013-01-23 17:03:00,
2013-01-23 10:12:00,46.0,-12.0,30.06,West,271,7.0,18.0,8,0.00,,,0.00,,2013-01-23 17:12:00,
2013-01-23 10:23:00,47.0,-11.0,30.06,NNW,330,3.0,12.0,8,0.00,,,0.00,,2013-01-23 17:23:00,
2013-01-23 10:33:00,47.0,-9.0,30.06,ENE,64,5.0,8.0,9,0.00,,,0.00,,2013-01-23 17:33:00,
2013-01-23 10:42:00,47.0,-9.0,30.06,ENE,64,5.0,8.0,9,0.00,,,0.00,,2013-01-23 17:42:00,
2013-01-23 10:53:00,48.0,-8.0,30.06,NE,52,1.0,8.0,9,0.00,,,0.00,,2013-01-23 17:53:00,
2013-01-23 11:03:00,49.0,-7.0,30.06,NNE,22,5.0,10.0,9,0.00,,,0.00,,2013-01-23 18:03:00,
2013-01-23 11:12:00,49.0,-7.0,30.06,NNE,22,5.0,10.0,9,0.00,,,0.00,,2013-01-23 18:12:00,
2013-01-23 11:23:00,50.0,-9.0,30.03,West,276,11.0,20.0,8,0.00,,,0.00,,2013-01-23 18:23:00,
2013-01-23 11:33:00,50.0,-9.0,30.03,West,276,11.0,20.0,8,0.00,,,0.00,,2013-01-23 18:33:00,
2013-01-23 11:43:00,50.0,-7.0,30.03,West,271,5.0,16.0,9,0.00,,,0.00,,2013-01-23 18:43:00,
2013-01-23 11:53:00,50.0,-7.0,30.01,SW,229,3.0,20.0,9,0.00,,,0.00,,2013-01-23 18:53:00,
2013-01-23 12:03:00,51.0,-6.0,30.01,West,279,12.0,21.0,9,0.00,,,0.00,,2013-01-23 19:03:00,
2013-01-23 12:13:00,51.0,-6.0,30.01,West,279,12.0,21.0,9,0.00,,,0.00,,2013-01-23 19:13:00,
2013-01-23 12:23:00,52.0,-7.0,29.98,WSW,258,14.0,22.0,8,0.00,,,0.00,,2013-01-23 19:23:00,
2013-01-23 12:33:00,52.0,-5.0,29.98,WSW,256,14.0,24.0,9,0.00,,,0.00,,2013-01-23 19:33:00,
2013-01-23 12:43:00,52.0,-5.0,29.98,WSW,256,14.0,24.0,9,0.00,,,0.00,,2013-01-23 19:43:00,
2013-01-23 12:53:00,53.0,-4.0,29.95,SW,224,12.0,29.0,9,0.00,,,0.00,,2013-01-23 19:53:00,
2013-01-23 13:03:00,53.0,-4.0,29.95,WSW,250,19.0,26.0,9,0.00,,,0.00,,2013-01-23 20:03:00,
2013-01-23 13:12:00,53.0,-4.0,29.95,WSW,250,19.0,26.0,9,0.00,,,0.00,,2013-01-23 20:12:00,
2013-01-23 13:23:00,54.0,-4.0,29.95,WSW,238,16.0,31.0,9,0.00,,,0.00,,2013-01-23 20:23:00,
2013-01-23 13:33:00,54.0,-4.0,29.95,West,272,16.0,35.0,9,0.00,,,0.00,,2013-01-23 20:33:00,
2013-01-23 13:42:00,54.0,-4.0,29.95,West,272,16.0,35.0,9,0.00,,,0.00,,2013-01-23 20:42:00,
2013-01-23 13:53:00,56.0,-4.0,29.91,WSW,245,25.0,35.0,8,0.00,,,0.00,,2013-01-23 20:53:00,
2013-01-23 14:03:00,56.0,-4.0,29.91,SW,232,25.0,35.0,8,0.00,,,0.00,,2013-01-23 21:03:00,
2013-01-23 14:12:00,56.0,-4.0,29.91,SW,232,25.0,35.0,8,0.00,,,0.00,,2013-01-23 21:12:00,
2013-01-23 14:22:00,55.0,-3.0,29.91,WSW,255,22.0,36.0,9,0.00,,,0.00,,2013-01-23 21:22:00,
2013-01-23 14:33:00,54.0,-4.0,29.91,WSW,244,22.0,32.0,9,0.00,,,0.00,,2013-01-23 21:33:00,
2013-01-23 14:42:00,54.0,-4.0,29.91,WSW,244,22.0,32.0,9,0.00,,,0.00,,2013-01-23 21:42:00,
2013-01-23 14:53:00,53.0,-4.0,29.93,WSW,255,21.0,33.0,9,0.00,,,0.00,,2013-01-23 21:53:00,
2013-01-23 15:02:00,54.0,-4.0,29.93,West,268,18.0,26.0,9,0.00,,,0.00,,2013-01-23 22:02:00,
2013-01-23 15:12:00,54.0,-4.0,29.93,West,268,18.0,26.0,9,0.00,,,0.00,,2013-01-23 22:12:00,
2013-01-23 15:23:00,54.0,-4.0,29.97,West,268,11.0,25.0,9,0.00,,,0.00,,2013-01-23 22:23:00,
2013-01-23 15:33:00,53.0,-4.0,29.97,West,275,10.0,21.0,9,0.00,,,0.00,,2013-01-23 22:33:00,
2013-01-23 15:42:00,53.0,-4.0,29.97,West,275,10.0,21.0,9,0.00,,,0.00,,2013-01-23 22:42:00,
2013-01-23 15:53:00,53.0,-2.0,29.98,WSW,241,9.0,17.0,10,0.00,,,0.00,,2013-01-23 22:53:00,
2013-01-23 16:03:00,52.0,-3.0,29.98,WSW,245,7.0,14.0,10,0.00,,,0.00,,2013-01-23 23:03:00,
2013-01-23 16:12:00,52.0,-3.0,29.98,WSW,245,7.0,14.0,10,0.00,,,0.00,,2013-01-23 23:12:00,
2013-01-23 16:23:00,51.0,-2.0,30.01,West,264,6.0,16.0,11,0.00,,,0.00,,2013-01-23 23:23:00,
2013-01-23 16:33:00,50.0,-2.0,30.01,West,264,6.0,14.0,11,0.00,,,0.00,,2013-01-23 23:33:00,
2013-01-23 16:42:00,50.0,-2.0,30.01,West,264,6.0,14.0,11,0.00,,,0.00,,2013-01-23 23:42:00,
2013-01-23 16:53:00,49.0,-3.0,30.03,West,268,3.0,16.0,11,0.00,,,0.00,,2013-01-23 23:53:00,
2013-01-23 17:03:00,49.0,-3.0,30.03,West,268,3.0,6.0,11,0.00,,,0.00,,2013-01-24 00:03:00,
2013-01-23 17:12:00,49.0,-3.0,30.03,West,268,3.0,6.0,11,0.00,,,0.00,,2013-01-24 00:12:00,
2013-01-23 17:22:00,49.0,-3.0,30.02,West,272,3.0,12.0,11,0.00,,,0.00,,2013-01-24 00:22:00,
2013-01-23 17:32:00,48.0,-2.0,30.02,West,272,7.0,12.0,12,0.00,,,0.00,,2013-01-24 00:32:00,
2013-01-23 17:42:00,48.0,-2.0,30.02,West,272,7.0,12.0,12,0.00,,,0.00,,2013-01-24 00:42:00,
2013-01-23 17:53:00,48.0,-2.0,30.02,West,272,2.0,7.0,12,0.00,,,0.00,,2013-01-24 00:53:00,
2013-01-23 18:03:00,48.0,-4.0,30.02,West,272,0.0,7.0,11,0.00,,,0.00,,2013-01-24 01:03:00,
2013-01-23 18:12:00,48.0,-4.0,30.02,West,272,0.0,7.0,11,0.00,,,0.00,,2013-01-24 01:12:00,
2013-01-23 18:23:00,48.0,-4.0,30.02,West,271,1.0,7.0,11,0.00,,,0.00,,2013-01-24 01:23:00,
2013-01-23 18:33:00,47.0,-3.0,30.02,West,275,3.0,8.0,12,0.00,,,0.00,,2013-01-24 01:33:00,
2013-01-23 18:42:00,47.0,-3.0,30.02,West,275,3.0,8.0,12,0.00,,,0.00,,2013-01-24 01:42:00,
2013-01-23 18:52:00,46.0,-2.0,30.03,West,275,3.0,5.0,13,0.00,,,0.00,,2013-01-24 01:52:00,
2013-01-23 19:02:00,46.0,-2.0,30.03,West,275,3.0,5.0,13,0.00,,,0.00,,2013-01-24 02:02:00,
2013-01-23 19:12:00,46.0,-2.0,30.03,West,275,3.0,5.0,13,0.00,,,0.00,,2013-01-24 02:12:00,
2013-01-23 19:22:00,46.0,-2.0,30.03,West,275,3.0,5.0,13,0.00,,,0.00,,2013-01-24 02:22:00,
2013-01-23 19:33:00,48.0,-4.0,30.02,West,275,5.0,14.0,11,0.00,,,0.00,,2013-01-24 02:33:00,
2013-01-23 19:43:00,48.0,-4.0,30.02,West,275,5.0,14.0,11,0.00,,,0.00,,2013-01-24 02:43:00,
2013-01-23 19:52:00,48.0,-4.0,30.02,West,275,5.0,14.0,11,0.00,,,0.00,,2013-01-24 02:52:00,
2013-01-23 20:02:00,47.0,-5.0,30.01,West,275,5.0,8.0,11,0.00,,,0.00,,2013-01-24 03:02:00,
2013-01-23 20:12:00,47.0,-5.0,30.01,West,275,5.0,8.0,11,0.00,,,0.00,,2013-01-24 03:12:00,
2013-01-23 20:22:00,47.0,-5.0,30.02,WSW,245,10.0,18.0,11,0.00,,,0.00,,2013-01-24 03:22:00,
2013-01-23 20:33:00,47.0,-5.0,30.02,WSW,245,10.0,18.0,11,0.00,,,0.00,,2013-01-24 03:33:00,
2013-01-23 20:43:00,47.0,-5.0,30.02,WSW,245,10.0,18.0,11,0.00,,,0.00,,2013-01-24 03:43:00,
2013-01-23 20:53:00,47.0,-3.0,30.03,West,262,12.0,18.0,12,0.00,,,0.00,,2013-01-24 03:53:00,
2013-01-23 21:02:00,47.0,-3.0,30.03,West,262,12.0,18.0,12,0.00,,,0.00,,2013-01-24 04:02:00,
2013-01-23 21:12:00,47.0,-3.0,30.03,West,262,12.0,18.0,12,0.00,,,0.00,,2013-01-24 04:12:00,
2013-01-23 21:22:00,47.0,-5.0,30.03,West,266,11.0,20.0,11,0.00,,,0.00,,2013-01-24 04:22:00,
2013-01-23 21:32:00,47.0,-5.0,30.03,WSW,248,13.0,21.0,11,0.00,,,0.00,,2013-01-24 04:32:00,
2013-01-23 21:43:00,47.0,-5.0,30.03,WSW,248,13.0,21.0,11,0.00,,,0.00,,2013-01-24 04:43:00,
2013-01-23 21:53:00,47.0,-5.0,30.02,SW,232,13.0,18.0,11,0.00,,,0.00,,2013-01-24 04:53:00,
2013-01-23 22:03:00,47.0,-5.0,30.02,West,260,11.0,18.0,11,0.00,,,0.00,,2013-01-24 05:03:00,
2013-01-23 22:12:00,47.0,-5.0,30.02,West,260,11.0,18.0,11,0.00,,,0.00,,2013-01-24 05:12:00,
2013-01-23 22:22:00,47.0,-5.0,30.02,West,260,11.0,18.0,11,0.00,,,0.00,,2013-01-24 05:22:00,
2013-01-23 22:32:00,47.0,-5.0,30.02,West,260,11.0,18.0,11,0.00,,,0.00,,2013-01-24 05:32:00,
2013-01-23 22:42:00,47.0,-5.0,30.02,West,260,11.0,18.0,11,0.00,,,0.00,,2013-01-24 05:42:00,
2013-01-23 22:53:00,46.0,-4.0,30.01,SW,224,5.0,12.0,12,0.00,,,0.00,,2013-01-24 05:53:00,
2013-01-23 23:02:00,46.0,-4.0,30.01,SW,220,2.0,13.0,12,0.00,,,0.00,,2013-01-24 06:02:00,
2013-01-23 23:12:00,46.0,-4.0,30.01,SW,220,2.0,13.0,12,0.00,,,0.00,,2013-01-24 06:12:00,
2013-01-23 23:22:00,45.0,-3.0,30.00,West,262,1.0,6.0,13,0.00,,,0.00,,2013-01-24 06:22:00,
2013-01-23 23:32:00,45.0,-3.0,30.00,West,262,1.0,6.0,13,0.00,,,0.00,,2013-01-24 06:32:00,
2013-01-23 23:42:00,45.0,-3.0,30.00,West,262,1.0,6.0,13,0.00,,,0.00,,2013-01-24 06:42:00,
2013-01-23 23:52:00,44.0,-4.0,29.98,West,280,5.0,12.0,13,0.00,,,0.00,,2013-01-24 06:52:00,